Location: Waco, TX
(31.5480°N, 97.1670°W)
Time: 04:05:57
(UTC-06:00)

ISS - Pass Details

Date: 21 November 2017
Orbit: 401 x 407 km, 51.6° (Epoch: 18 November)

Event Time Altitude Azimuth Distance (km) Brightness Sun altitude
Enters shadow 20:11:22 - 220° (SW) 2,322 0.6 -34.7°
Rises 20:11:24 0° 220° (SW) 2,308 - -34.8°
Reaches altitude 10° 20:13:28 10° 218° (SW) 1,451 - -35.2°
Maximum altitude 20:16:42 73° 134° (SE) 423 - -35.9°
Drops below altitude 10° 20:19:58 10° 49° (NE) 1,456 - -36.6°
Sets 20:22:03 0° 47° (NE) 2,317 - -37.0°
